Le nostre stazioni meteo in Italia

Pubblicità
Il mio iltempo24.it
Braemar, Gran Bretagna (99089): Temperatura & dewpoint: 15.09.2018 04:00:00 - 21.09.2018 04:00:00 (BST)Braemar, Gran Bretagna (99089): Temperatura -20cm & Temperatura -100cm: 15.09.2018 04:00:00 - 21.09.2018 04:00:00 (BST)Braemar, Gran Bretagna (99089): precipitazioni: 15.09.2018 04:00:00 - 21.09.2018 04:00:00 (BST)
Data & Tempo tt [°C] td [°C] tt -20cm [°C] tt -100cm [°C] rr [mm]
21.09.2018 04:00:00 - - - - -
21.09.2018 03:00:00 6,0 3,2 - - 0,2
21.09.2018 02:00:00 5,6 3,1 - - 0,0
21.09.2018 01:00:00 5,0 4,1 - - 0,0
21.09.2018 00:00:00 5,3 4,3 - - 0,2
20.09.2018 23:00:00 6,0 4,7 - - 0,2
20.09.2018 22:00:00 6,0 4,8 - - 0,0
20.09.2018 21:00:00 6,5 4,5 - - 0,0
20.09.2018 20:00:00 7,0 4,7 - - 0,0
20.09.2018 19:00:00 8,8 4,1 - - 0,0
20.09.2018 18:00:00 9,7 3,1 - - 0,0
20.09.2018 17:00:00 10,1 3,3 - - 0,0
20.09.2018 16:00:00 10,3 4,5 - - 0,0
20.09.2018 15:00:00 11,1 4,3 - - 0,0
20.09.2018 14:00:00 10,9 4,5 - - 0,0
20.09.2018 13:00:00 11,4 4,3 - - 0,0
20.09.2018 12:00:00 9,8 4,6 - - 0,0
20.09.2018 11:00:00 9,0 4,2 - - 0,0
20.09.2018 10:00:00 9,0 3,9 10,7 11,7 0,0
20.09.2018 09:00:00 7,1 4,0 - - 0,6
20.09.2018 08:00:00 6,4 4,3 - - 1,2
20.09.2018 07:00:00 7,0 3,3 - - 0,0
20.09.2018 06:00:00 6,7 3,4 - - 0,0
20.09.2018 05:00:00 7,0 3,7 - - 0,2
20.09.2018 04:00:00 6,2 4,9 - - 1,6
20.09.2018 03:00:00 6,5 4,3 - - 0,0
20.09.2018 02:00:00 5,6 3,4 - - 0,2
20.09.2018 01:00:00 5,7 3,7 - - 1,8
20.09.2018 00:00:00 6,2 4,9 - - 1,4
19.09.2018 23:00:00 7,0 3,8 - - 0,4
19.09.2018 22:00:00 7,3 4,4 - - 0,4
19.09.2018 21:00:00 7,4 4,5 - - 0,2
19.09.2018 20:00:00 7,8 5,1 - - 0,4
19.09.2018 19:00:00 7,7 5,2 - - 0,2
19.09.2018 18:00:00 7,5 5,6 - - 0,6
19.09.2018 17:00:00 9,2 5,0 - - 0,0
19.09.2018 16:00:00 10,0 5,3 - - 0,2
19.09.2018 15:00:00 10,7 8,4 - - 1,6
19.09.2018 14:00:00 10,8 7,2 - - 0,4
19.09.2018 13:00:00 12,8 6,4 - - 2,0
19.09.2018 12:00:00 11,8 10,3 - - 4,0
19.09.2018 11:00:00 9,9 8,1 - - 4,4
19.09.2018 10:00:00 8,0 6,5 11,9 11,5 2,8
19.09.2018 09:00:00 9,2 4,4 - - 0,2
19.09.2018 08:00:00 9,5 4,9 - - 0,0
19.09.2018 07:00:00 9,2 4,9 - - 0,0
19.09.2018 06:00:00 9,3 5,4 - - 0,0
19.09.2018 05:00:00 9,3 5,6 - - 0,0
19.09.2018 04:00:00 9,2 5,5 - - 0,0
19.09.2018 03:00:00 8,8 5,5 - - 1,6
19.09.2018 02:00:00 10,8 7,1 - - 0,2
19.09.2018 01:00:00 11,2 5,7 - - 0,0
19.09.2018 00:00:00 10,9 8,1 - - 0,0
18.09.2018 23:00:00 10,2 8,2 - - 0,8
18.09.2018 22:00:00 11,5 7,6 - - 0,0
18.09.2018 21:00:00 13,0 9,0 - - 0,0
18.09.2018 20:00:00 13,0 9,0 - - 0,0
18.09.2018 19:00:00 13,7 9,3 - - 0,0
18.09.2018 18:00:00 13,3 10,2 - - 0,0
18.09.2018 17:00:00 15,6 9,3 - - 0,0
18.09.2018 16:00:00 16,3 11,6 - - 0,0
18.09.2018 15:00:00 15,8 13,4 - - 0,0
18.09.2018 14:00:00 15,3 13,2 - - 0,2
18.09.2018 13:00:00 14,8 13,8 - - 0,0
18.09.2018 12:00:00 15,0 13,7 - - 0,0
18.09.2018 11:00:00 14,4 12,8 - - 0,2
18.09.2018 10:00:00 13,8 13,2 11,7 11,5 0,2
18.09.2018 09:00:00 13,9 12,8 - - 0,0
18.09.2018 08:00:00 13,6 12,6 - - 0,4
18.09.2018 07:00:00 13,4 12,6 - - 1,0
18.09.2018 06:00:00 13,8 12,6 - - 0,2
18.09.2018 05:00:00 14,1 12,3 - - 0,2
18.09.2018 04:00:00 15,1 12,1 - - 0,0
18.09.2018 03:00:00 15,0 12,2 - - 0,0
18.09.2018 02:00:00 14,8 12,2 - - 0,0
18.09.2018 01:00:00 14,7 12,5 - - 0,0
18.09.2018 00:00:00 14,7 12,6 - - 0,4
17.09.2018 23:00:00 14,8 13,1 - - 0,4
17.09.2018 22:00:00 15,1 13,2 - - 0,8
17.09.2018 21:00:00 14,7 13,0 - - 1,0
17.09.2018 20:00:00 13,7 12,4 - - 0,8
17.09.2018 19:00:00 12,7 11,4 - - 0,2
17.09.2018 18:00:00 11,9 10,7 - - 0,4
17.09.2018 17:00:00 11,6 10,6 - - 0,0
17.09.2018 16:00:00 12,4 9,1 - - 0,0
17.09.2018 15:00:00 11,8 9,0 - - 0,0
17.09.2018 14:00:00 11,4 8,9 - - 0,2
17.09.2018 13:00:00 11,8 8,8 - - 0,0
17.09.2018 12:00:00 11,8 8,7 - - 0,0
17.09.2018 11:00:00 11,6 9,1 - - 0,0
17.09.2018 10:00:00 11,5 8,9 11,4 11,7 0,0
17.09.2018 09:00:00 10,8 9,0 - - 0,0
17.09.2018 08:00:00 10,8 8,5 - - 0,0
17.09.2018 07:00:00 10,5 8,4 - - 0,0
17.09.2018 06:00:00 10,0 8,0 - - 0,0
17.09.2018 05:00:00 10,1 7,9 - - 0,0
17.09.2018 04:00:00 10,2 7,3 - - 0,0
17.09.2018 03:00:00 9,9 7,8 - - 0,0
17.09.2018 02:00:00 9,9 7,4 - - 0,0
17.09.2018 01:00:00 10,1 6,9 - - 0,0
17.09.2018 00:00:00 9,7 6,4 - - 0,0
16.09.2018 23:00:00 9,3 6,1 - - 0,0
16.09.2018 22:00:00 9,6 6,1 - - 0,0
16.09.2018 21:00:00 9,8 6,1 - - 0,0
16.09.2018 20:00:00 9,6 5,9 - - 0,0
16.09.2018 19:00:00 9,9 5,7 - - 0,0
16.09.2018 18:00:00 9,8 6,5 - - 0,2
16.09.2018 17:00:00 10,4 5,6 - - 0,0
16.09.2018 16:00:00 11,5 5,7 - - 0,0
16.09.2018 15:00:00 10,3 6,2 - - 0,2
16.09.2018 14:00:00 12,2 6,6 - - 0,2
16.09.2018 13:00:00 11,3 7,4 - - 0,0
16.09.2018 12:00:00 12,9 9,0 - - 0,0
16.09.2018 11:00:00 13,8 8,4 - - 0,0
16.09.2018 10:00:00 12,9 8,2 11,0 11,7 0,0
16.09.2018 09:00:00 12,8 9,2 - - 0,0
16.09.2018 08:00:00 13,5 10,8 - - 0,0
16.09.2018 07:00:00 13,9 11,2 - - 0,0
16.09.2018 06:00:00 12,8 11,2 - - 0,4
16.09.2018 05:00:00 11,8 10,5 - - 1,2
16.09.2018 04:00:00 11,2 10,0 - - 3,0
16.09.2018 03:00:00 11,2 9,7 - - 1,2
16.09.2018 02:00:00 11,1 9,4 - - 0,8
16.09.2018 01:00:00 11,1 9,0 - - 0,4
16.09.2018 00:00:00 10,8 8,9 - - 0,4
15.09.2018 23:00:00 10,5 8,9 - - 0,2
15.09.2018 22:00:00 10,7 8,1 - - 0,0
15.09.2018 21:00:00 10,4 8,5 - - 0,0
15.09.2018 20:00:00 10,0 8,1 - - 0,0
15.09.2018 19:00:00 10,1 7,2 - - 0,2
15.09.2018 18:00:00 11,3 6,2 - - 0,0
15.09.2018 17:00:00 11,8 5,5 - - 0,0
15.09.2018 16:00:00 12,3 4,8 - - 0,0
15.09.2018 15:00:00 13,1 4,5 - - 0,0
15.09.2018 14:00:00 11,8 4,6 - - 0,0
15.09.2018 13:00:00 12,5 3,7 - - 0,0
15.09.2018 12:00:00 11,6 4,3 - - 0,0
15.09.2018 11:00:00 9,5 4,8 - - 0,0
15.09.2018 10:00:00 8,4 5,1 10,9 11,9 0,0
15.09.2018 09:00:00 6,9 4,0 - - 0,0
15.09.2018 08:00:00 5,8 3,6 - - 0,0
15.09.2018 07:00:00 4,3 3,4 - - 0,0
15.09.2018 06:00:00 3,4 1,9 - - 0,0
15.09.2018 05:00:00 2,6 1,9 - - 0,0
15.09.2018 04:00:00 3,5 2,8 - - 0,0

tt = Temperatura
td = dewpoint
tt -20cm = Temperatura -20cm
tt -100cm = Temperatura -100cm
rr = precipitazioni

Stazioni seguenti

WeatherPro
AMSI
MeteoEarth